Year,Month,Day,Hour,Minute,Value (Times are PST for windgust in km/hr)
2013,09,01,00,00,1.60
2013,09,01,01,00,1.60
2013,09,01,01,02,1.60
2013,09,01,01,13,1.60
2013,09,01,01,14,1.60
2013,09,01,01,16,1.60
2013,09,01,01,17,1.60
2013,09,01,01,18,1.60
2013,09,01,01,19,1.60
2013,09,01,01,44,1.60
2013,09,01,02,34,1.60
2013,09,01,03,24,3.20
2013,09,01,03,25,3.20
2013,09,01,03,49,1.60
2013,09,01,03,51,1.60
2013,09,01,04,06,1.60
2013,09,01,04,08,1.60
2013,09,01,04,27,1.60
2013,09,01,04,45,3.20
2013,09,01,04,46,3.20
2013,09,01,04,47,1.60
2013,09,01,04,54,1.60
2013,09,01,05,42,1.60
2013,09,01,07,17,1.60
2013,09,01,08,24,4.80
2013,09,01,08,25,3.20
2013,09,01,08,27,1.60
2013,09,01,08,28,4.80
2013,09,01,08,29,1.60
2013,09,01,08,30,3.20
2013,09,01,08,33,1.60
2013,09,01,08,34,1.60
2013,09,01,08,36,1.60
2013,09,01,08,37,4.80
2013,09,01,08,38,4.80
2013,09,01,08,39,1.60
2013,09,01,08,40,1.60
2013,09,01,08,41,1.60
2013,09,01,08,43,1.60
2013,09,01,08,44,6.40
2013,09,01,08,45,3.20
2013,09,01,08,46,3.20
2013,09,01,08,49,1.60
2013,09,01,08,51,1.60
2013,09,01,08,52,4.80
2013,09,01,08,53,4.80
2013,09,01,08,54,3.20
2013,09,01,08,56,4.80
2013,09,01,08,57,1.60
2013,09,01,08,58,3.20
2013,09,01,08,59,1.60
2013,09,01,09,00,1.60
2013,09,01,09,01,1.60
2013,09,01,09,02,3.20
2013,09,01,09,03,4.80
2013,09,01,09,04,6.40
2013,09,01,09,05,1.60
2013,09,01,09,09,1.60
2013,09,01,09,10,1.60
2013,09,01,09,11,4.80
2013,09,01,09,12,3.20
2013,09,01,09,14,4.80
2013,09,01,09,15,4.80
2013,09,01,09,16,8.10
2013,09,01,09,17,3.20
2013,09,01,09,18,4.80
2013,09,01,09,19,1.60
2013,09,01,09,20,3.20
2013,09,01,09,21,8.10
2013,09,01,09,22,4.80
2013,09,01,09,24,3.20
2013,09,01,09,25,6.40
2013,09,01,09,26,3.20
2013,09,01,09,27,4.80
2013,09,01,09,28,4.80
2013,09,01,09,29,6.40
2013,09,01,09,30,4.80
2013,09,01,09,31,8.10
2013,09,01,09,32,8.10
2013,09,01,09,33,6.40
2013,09,01,09,34,8.10
2013,09,01,09,35,11.30
2013,09,01,09,36,8.10
2013,09,01,09,37,9.60
2013,09,01,09,38,9.60
2013,09,01,09,39,6.40
2013,09,01,09,40,4.80
2013,09,01,09,41,11.30
2013,09,01,09,42,9.60
2013,09,01,09,43,11.30
2013,09,01,09,44,9.60
2013,09,01,09,45,8.10
2013,09,01,09,46,11.30
2013,09,01,09,47,9.60
2013,09,01,09,48,11.30
2013,09,01,09,49,9.60
2013,09,01,09,50,11.30
2013,09,01,09,51,11.30
2013,09,01,09,52,11.30
2013,09,01,09,53,11.30
2013,09,01,09,54,11.30
2013,09,01,09,55,11.30
2013,09,01,09,56,9.60
2013,09,01,09,57,9.60
2013,09,01,09,58,8.10
2013,09,01,09,59,8.10
2013,09,01,10,00,9.60
2013,09,01,10,01,6.40
2013,09,01,10,02,8.10
2013,09,01,10,03,11.30
2013,09,01,10,04,11.30
2013,09,01,10,05,9.60
2013,09,01,10,06,8.10
2013,09,01,10,07,6.40
2013,09,01,10,08,4.80
2013,09,01,10,09,1.60
2013,09,01,10,10,8.10
2013,09,01,10,11,3.20
2013,09,01,10,12,6.40
2013,09,01,10,13,8.10
2013,09,01,10,14,8.10
2013,09,01,10,15,9.60
2013,09,01,10,16,11.30
2013,09,01,10,17,11.30
2013,09,01,10,18,9.60
2013,09,01,10,19,8.10
2013,09,01,10,20,6.40
2013,09,01,10,21,8.10
2013,09,01,10,22,11.30
2013,09,01,10,23,6.40
2013,09,01,10,24,6.40
2013,09,01,10,25,6.40
2013,09,01,10,26,11.30
2013,09,01,10,27,8.10
2013,09,01,10,28,6.40
2013,09,01,10,29,8.10
2013,09,01,10,30,8.10
2013,09,01,10,31,8.10
2013,09,01,10,32,4.80
2013,09,01,10,33,6.40
2013,09,01,10,34,9.60
2013,09,01,10,35,11.30
2013,09,01,10,36,8.10
2013,09,01,10,37,9.60
2013,09,01,10,38,9.60
2013,09,01,10,39,9.60
2013,09,01,10,40,8.10
2013,09,01,10,41,9.60
2013,09,01,10,42,8.10
2013,09,01,10,43,8.10
2013,09,01,10,44,6.40
2013,09,01,10,45,6.40
2013,09,01,10,46,9.60
2013,09,01,10,47,9.60
2013,09,01,10,48,8.10
2013,09,01,10,49,9.60
2013,09,01,10,50,9.60
2013,09,01,10,51,8.10
2013,09,01,10,52,9.60
2013,09,01,10,53,6.40
2013,09,01,10,54,11.30
2013,09,01,10,55,6.40
2013,09,01,10,56,6.40
2013,09,01,10,57,1.60
2013,09,01,10,58,8.10
2013,09,01,10,59,9.60
2013,09,01,11,00,6.40
2013,09,01,11,01,8.10
2013,09,01,11,02,9.60
2013,09,01,11,03,9.60
2013,09,01,11,04,8.10
2013,09,01,11,05,8.10
2013,09,01,11,06,9.60
2013,09,01,11,07,9.60
2013,09,01,11,08,6.40
2013,09,01,11,09,9.60
2013,09,01,11,10,11.30
2013,09,01,11,11,9.60
2013,09,01,11,12,9.60
2013,09,01,11,13,8.10
2013,09,01,11,14,9.60
2013,09,01,11,15,11.30
2013,09,01,11,16,9.60
2013,09,01,11,17,11.30
2013,09,01,11,18,11.30
2013,09,01,11,19,9.60
2013,09,01,11,20,4.80
2013,09,01,11,21,8.10
2013,09,01,11,22,1.60
2013,09,01,11,23,8.10
2013,09,01,11,24,11.30
2013,09,01,11,25,12.90
2013,09,01,11,26,9.60
2013,09,01,11,27,11.30
2013,09,01,11,28,9.60
2013,09,01,11,29,9.60
2013,09,01,11,30,11.30
2013,09,01,11,31,9.60
2013,09,01,11,32,8.10
2013,09,01,11,33,9.60
2013,09,01,11,34,6.40
2013,09,01,11,35,8.10
2013,09,01,11,36,9.60
2013,09,01,11,37,9.60
2013,09,01,11,38,8.10
2013,09,01,11,39,9.60
2013,09,01,11,40,9.60
2013,09,01,11,41,4.80
2013,09,01,11,42,12.90
2013,09,01,11,43,11.30
2013,09,01,11,44,9.60
2013,09,01,11,45,9.60
2013,09,01,11,46,8.10
2013,09,01,11,47,9.60
2013,09,01,11,48,6.40
2013,09,01,11,49,8.10
2013,09,01,11,50,6.40
2013,09,01,11,51,8.10
2013,09,01,11,52,8.10
2013,09,01,11,53,6.40
2013,09,01,11,54,11.30
2013,09,01,11,55,9.60
2013,09,01,11,56,8.10
2013,09,01,11,57,6.40
2013,09,01,11,58,8.10
2013,09,01,11,59,9.60
2013,09,01,12,00,8.10
2013,09,01,12,01,9.60
2013,09,01,12,02,11.30
2013,09,01,12,03,9.60
2013,09,01,12,04,6.40
2013,09,01,12,05,6.40
2013,09,01,12,06,8.10
2013,09,01,12,07,9.60
2013,09,01,12,08,8.10
2013,09,01,12,09,11.30
2013,09,01,12,10,8.10
2013,09,01,12,11,12.90
2013,09,01,12,12,9.60
2013,09,01,12,13,8.10
2013,09,01,12,14,11.30
2013,09,01,12,15,9.60
2013,09,01,12,16,8.10
2013,09,01,12,17,9.60
2013,09,01,12,18,4.80
2013,09,01,12,19,8.10
2013,09,01,12,20,6.40
2013,09,01,12,21,4.80
2013,09,01,12,22,8.10
2013,09,01,12,23,8.10
2013,09,01,12,24,6.40
2013,09,01,12,25,4.80
2013,09,01,12,26,11.30
2013,09,01,12,27,9.60
2013,09,01,12,28,9.60
2013,09,01,12,29,9.60
2013,09,01,12,30,8.10
2013,09,01,12,31,3.20
2013,09,01,12,32,8.10
2013,09,01,12,33,6.40
2013,09,01,12,34,8.10
2013,09,01,12,35,8.10
2013,09,01,12,36,8.10
2013,09,01,12,37,8.10
2013,09,01,12,38,9.60
2013,09,01,12,39,9.60
2013,09,01,12,40,8.10
2013,09,01,12,41,8.10
2013,09,01,12,42,3.20
2013,09,01,12,43,9.60
2013,09,01,12,44,8.10
2013,09,01,12,45,8.10
2013,09,01,12,46,4.80
2013,09,01,12,47,4.80
2013,09,01,12,48,9.60
2013,09,01,12,49,4.80
2013,09,01,12,50,11.30
2013,09,01,12,51,11.30
2013,09,01,12,52,9.60
2013,09,01,12,53,6.40
2013,09,01,12,54,8.10
2013,09,01,12,55,9.60
2013,09,01,12,56,11.30
2013,09,01,12,57,11.30
2013,09,01,12,58,8.10
2013,09,01,12,59,4.80
2013,09,01,13,00,11.30
2013,09,01,13,01,11.30
2013,09,01,13,02,11.30
2013,09,01,13,03,9.60
2013,09,01,13,04,9.60
2013,09,01,13,05,11.30
2013,09,01,13,06,8.10
2013,09,01,13,07,9.60
2013,09,01,13,08,8.10
2013,09,01,13,09,11.30
2013,09,01,13,10,11.30
2013,09,01,13,11,9.60
2013,09,01,13,12,8.10
2013,09,01,13,13,8.10
2013,09,01,13,14,9.60
2013,09,01,13,15,11.30
2013,09,01,13,16,12.90
2013,09,01,13,17,11.30
2013,09,01,13,18,9.60
2013,09,01,13,19,6.40
2013,09,01,13,20,9.60
2013,09,01,13,21,4.80
2013,09,01,13,22,6.40
2013,09,01,13,23,8.10
2013,09,01,13,24,9.60
2013,09,01,13,25,9.60
2013,09,01,13,26,11.30
2013,09,01,13,27,8.10
2013,09,01,13,28,6.40
2013,09,01,13,29,9.60
2013,09,01,13,30,8.10
2013,09,01,13,31,6.40
2013,09,01,13,32,8.10
2013,09,01,13,33,8.10
2013,09,01,13,34,9.60
2013,09,01,13,35,1.60
2013,09,01,13,36,9.60
2013,09,01,13,37,6.40
2013,09,01,13,38,3.20
2013,09,01,13,39,6.40
2013,09,01,13,40,8.10
2013,09,01,13,41,9.60
2013,09,01,13,42,8.10
2013,09,01,13,43,6.40
2013,09,01,13,44,1.60
2013,09,01,13,45,6.40
2013,09,01,13,46,3.20
2013,09,01,13,47,6.40
2013,09,01,13,48,4.80
2013,09,01,13,49,8.10
2013,09,01,13,50,8.10
2013,09,01,13,51,6.40
2013,09,01,13,52,6.40
2013,09,01,13,53,4.80
2013,09,01,13,54,6.40
2013,09,01,13,55,4.80
2013,09,01,13,56,8.10
2013,09,01,13,57,6.40
2013,09,01,13,58,6.40
2013,09,01,13,59,11.30
2013,09,01,14,00,8.10
2013,09,01,14,01,4.80
2013,09,01,14,02,8.10
2013,09,01,14,03,8.10
2013,09,01,14,04,11.30
2013,09,01,14,05,6.40
2013,09,01,14,06,3.20
2013,09,01,14,07,6.40
2013,09,01,14,08,8.10
2013,09,01,14,09,6.40
2013,09,01,14,10,4.80
2013,09,01,14,11,8.10
2013,09,01,14,12,11.30
2013,09,01,14,13,8.10
2013,09,01,14,14,8.10
2013,09,01,14,15,8.10
2013,09,01,14,16,6.40
2013,09,01,14,17,4.80
2013,09,01,14,18,8.10
2013,09,01,14,19,8.10
2013,09,01,14,20,8.10
2013,09,01,14,21,9.60
2013,09,01,14,22,8.10
2013,09,01,14,23,9.60
2013,09,01,14,24,9.60
2013,09,01,14,25,6.40
2013,09,01,14,26,8.10
2013,09,01,14,27,8.10
2013,09,01,14,28,9.60
2013,09,01,14,29,9.60
2013,09,01,14,30,8.10
2013,09,01,14,31,9.60
2013,09,01,14,32,6.40
2013,09,01,14,33,9.60
2013,09,01,14,34,6.40
2013,09,01,14,35,8.10
2013,09,01,14,36,8.10
2013,09,01,14,37,9.60
2013,09,01,14,38,8.10
2013,09,01,14,39,8.10
2013,09,01,14,40,6.40
2013,09,01,14,41,4.80
2013,09,01,14,42,4.80
2013,09,01,14,43,8.10
2013,09,01,14,44,3.20
2013,09,01,14,45,4.80
2013,09,01,14,46,3.20
2013,09,01,14,47,8.10
2013,09,01,14,48,9.60
2013,09,01,14,49,11.30
2013,09,01,14,50,6.40
2013,09,01,14,51,1.60
2013,09,01,14,52,4.80
2013,09,01,14,53,4.80
2013,09,01,14,54,6.40
2013,09,01,14,55,3.20
2013,09,01,14,56,6.40
2013,09,01,14,57,3.20
2013,09,01,14,58,9.60
2013,09,01,14,59,8.10
2013,09,01,15,00,6.40
2013,09,01,15,02,8.10
2013,09,01,15,03,8.10
2013,09,01,15,05,3.20
2013,09,01,15,06,6.40
2013,09,01,15,07,6.40
2013,09,01,15,08,4.80
2013,09,01,15,09,8.10
2013,09,01,15,10,9.60
2013,09,01,15,11,3.20
2013,09,01,15,12,4.80
2013,09,01,15,13,8.10
2013,09,01,15,14,6.40
2013,09,01,15,15,6.40
2013,09,01,15,16,8.10
2013,09,01,15,17,3.20
2013,09,01,15,18,4.80
2013,09,01,15,19,8.10
2013,09,01,15,20,6.40
2013,09,01,15,21,9.60
2013,09,01,15,22,8.10
2013,09,01,15,23,6.40
2013,09,01,15,24,6.40
2013,09,01,15,25,4.80
2013,09,01,15,26,6.40
2013,09,01,15,27,4.80
2013,09,01,15,29,1.60
2013,09,01,15,31,6.40
2013,09,01,15,32,6.40
2013,09,01,15,33,6.40
2013,09,01,15,34,4.80
2013,09,01,15,35,1.60
2013,09,01,15,36,1.60
2013,09,01,15,37,4.80
2013,09,01,15,38,6.40
2013,09,01,15,39,6.40
2013,09,01,15,40,6.40
2013,09,01,15,41,4.80
2013,09,01,15,42,6.40
2013,09,01,15,43,4.80
2013,09,01,15,44,3.20
2013,09,01,15,45,4.80
2013,09,01,15,46,6.40
2013,09,01,15,47,6.40
2013,09,01,15,48,3.20
2013,09,01,15,49,6.40
2013,09,01,15,50,6.40
2013,09,01,15,51,6.40
2013,09,01,15,52,6.40
2013,09,01,15,53,6.40
2013,09,01,15,54,8.10
2013,09,01,15,55,4.80
2013,09,01,15,56,3.20
2013,09,01,15,57,6.40
2013,09,01,15,58,3.20
2013,09,01,15,59,3.20
2013,09,01,16,00,1.60
2013,09,01,16,01,1.60
2013,09,01,16,02,4.80
2013,09,01,16,03,4.80
2013,09,01,16,04,3.20
2013,09,01,16,05,6.40
2013,09,01,16,06,6.40
2013,09,01,16,07,1.60
2013,09,01,16,08,3.20
2013,09,01,16,09,1.60
2013,09,01,16,10,4.80
2013,09,01,16,11,4.80
2013,09,01,16,12,6.40
2013,09,01,16,13,1.60
2013,09,01,16,14,1.60
2013,09,01,16,15,1.60
2013,09,01,16,16,1.60
2013,09,01,16,17,1.60
2013,09,01,16,18,4.80
2013,09,01,16,19,4.80
2013,09,01,16,20,6.40
2013,09,01,16,21,3.20
2013,09,01,16,22,8.10
2013,09,01,16,23,6.40
2013,09,01,16,24,8.10
2013,09,01,16,25,4.80
2013,09,01,16,26,1.60
2013,09,01,16,27,3.20
2013,09,01,16,28,3.20
2013,09,01,16,29,6.40
2013,09,01,16,30,8.10
2013,09,01,16,31,1.60
2013,09,01,16,32,1.60
2013,09,01,16,33,8.10
2013,09,01,16,34,4.80
2013,09,01,16,35,4.80
2013,09,01,16,36,8.10
2013,09,01,16,37,4.80
2013,09,01,16,38,4.80
2013,09,01,16,39,8.10
2013,09,01,16,40,6.40
2013,09,01,16,41,8.10
2013,09,01,16,42,9.60
2013,09,01,16,43,8.10
2013,09,01,16,44,6.40
2013,09,01,16,45,4.80
2013,09,01,16,46,4.80
2013,09,01,16,47,8.10
2013,09,01,16,48,6.40
2013,09,01,16,49,4.80
2013,09,01,16,50,6.40
2013,09,01,16,52,1.60
2013,09,01,16,53,4.80
2013,09,01,16,54,6.40
2013,09,01,16,55,6.40
2013,09,01,16,56,3.20
2013,09,01,16,57,4.80
2013,09,01,16,58,4.80
2013,09,01,16,59,4.80
2013,09,01,17,00,6.40
2013,09,01,17,01,6.40
2013,09,01,17,02,3.20
2013,09,01,17,03,4.80
2013,09,01,17,04,1.60
2013,09,01,17,05,1.60
2013,09,01,17,06,1.60
2013,09,01,17,07,3.20
2013,09,01,17,08,4.80
2013,09,01,17,09,4.80
2013,09,01,17,10,1.60
2013,09,01,17,11,1.60
2013,09,01,17,12,1.60
2013,09,01,17,13,3.20
2013,09,01,17,14,1.60
2013,09,01,17,15,3.20
2013,09,01,17,16,1.60
2013,09,01,17,17,3.20
2013,09,01,17,18,4.80
2013,09,01,17,19,3.20
2013,09,01,17,20,3.20
2013,09,01,17,22,1.60
2013,09,01,17,23,1.60
2013,09,01,17,24,1.60
2013,09,01,17,25,3.20
2013,09,01,17,28,1.60
2013,09,01,17,29,3.20
2013,09,01,17,30,3.20
2013,09,01,17,31,4.80
2013,09,01,17,32,6.40
2013,09,01,17,33,8.10
2013,09,01,17,34,8.10
2013,09,01,17,35,6.40
2013,09,01,17,36,6.40
2013,09,01,17,37,6.40
2013,09,01,17,38,6.40
2013,09,01,17,39,4.80
2013,09,01,17,40,4.80
2013,09,01,17,41,6.40
2013,09,01,17,42,6.40
2013,09,01,17,44,4.80
2013,09,01,17,45,4.80
2013,09,01,17,46,1.60
2013,09,01,17,47,4.80
2013,09,01,17,48,6.40
2013,09,01,17,49,3.20
2013,09,01,17,50,1.60
2013,09,01,17,51,4.80
2013,09,01,17,52,4.80
2013,09,01,17,53,1.60
2013,09,01,17,54,4.80
2013,09,01,17,55,4.80
2013,09,01,17,56,4.80
2013,09,01,17,57,1.60
2013,09,01,18,00,3.20
2013,09,01,18,01,4.80
2013,09,01,18,02,4.80
2013,09,01,18,03,3.20
2013,09,01,18,04,3.20
2013,09,01,18,05,1.60
2013,09,01,18,07,3.20
2013,09,01,18,08,1.60
2013,09,01,18,10,1.60
2013,09,01,18,11,1.60
2013,09,01,18,22,3.20
2013,09,01,18,23,3.20
2013,09,01,18,24,1.60
2013,09,01,18,27,1.60
2013,09,01,18,28,3.20
2013,09,01,18,29,3.20
2013,09,01,18,30,1.60
2013,09,01,18,31,1.60
2013,09,01,18,33,1.60
2013,09,01,18,34,1.60
2013,09,01,18,41,1.60
2013,09,01,18,44,1.60
2013,09,01,18,47,1.60
2013,09,01,18,48,3.20
2013,09,01,18,49,3.20
2013,09,01,18,50,1.60
2013,09,01,18,51,3.20
2013,09,01,18,53,1.60
2013,09,01,18,55,1.60
2013,09,01,18,56,1.60
2013,09,01,18,57,1.60
2013,09,01,18,58,3.20
2013,09,01,18,59,1.60
2013,09,01,19,00,4.80
2013,09,01,19,01,4.80
2013,09,01,19,02,3.20
2013,09,01,19,06,1.60
2013,09,01,19,07,4.80
2013,09,01,19,08,3.20
2013,09,01,19,09,3.20
2013,09,01,19,10,4.80
2013,09,01,19,11,3.20
2013,09,01,19,24,1.60
2013,09,01,19,57,1.60
2013,09,01,20,00,1.60
2013,09,01,20,01,1.60
2013,09,01,20,10,1.60
2013,09,01,20,18,1.60
2013,09,01,20,20,1.60
2013,09,01,20,22,4.80
2013,09,01,20,23,4.80
2013,09,01,20,24,1.60
2013,09,01,20,28,1.60
2013,09,01,20,29,1.60
2013,09,01,20,34,1.60
2013,09,01,20,37,1.60
2013,09,01,20,45,1.60
2013,09,01,20,49,3.20
2013,09,01,20,50,3.20
2013,09,01,20,56,1.60
2013,09,01,21,15,1.60
2013,09,01,21,16,1.60
2013,09,01,21,18,1.60
2013,09,01,21,21,1.60
2013,09,01,21,24,1.60
2013,09,01,21,31,1.60
2013,09,01,21,45,1.60
2013,09,01,22,00,3.20
2013,09,01,22,01,4.80
2013,09,01,22,02,1.60
2013,09,01,22,03,1.60
2013,09,01,22,04,4.80
2013,09,01,22,05,3.20
2013,09,01,22,06,1.60
2013,09,01,22,08,3.20
2013,09,01,22,10,1.60
2013,09,01,22,12,1.60
2013,09,01,22,13,6.40
2013,09,01,22,14,6.40
2013,09,01,22,15,8.10
2013,09,01,22,16,3.20
2013,09,01,22,17,3.20
2013,09,01,22,18,1.60
2013,09,01,22,19,6.40
2013,09,01,22,20,11.30
2013,09,01,22,21,6.40
2013,09,01,22,22,8.10
2013,09,01,22,23,4.80
2013,09,01,22,24,8.10
2013,09,01,22,25,6.40
2013,09,01,22,26,4.80
2013,09,01,22,27,1.60
2013,09,01,22,28,6.40
2013,09,01,22,29,1.60
2013,09,01,22,30,1.60
2013,09,01,22,32,1.60
2013,09,01,22,33,4.80
2013,09,01,22,34,1.60
2013,09,01,22,35,3.20
2013,09,01,22,36,3.20
2013,09,01,22,37,4.80
2013,09,01,22,38,4.80
2013,09,01,22,39,1.60
2013,09,01,22,41,8.10
2013,09,01,22,42,11.30
2013,09,01,22,43,11.30
2013,09,01,22,44,16.10
2013,09,01,22,45,11.30
2013,09,01,22,46,6.40
2013,09,01,22,47,8.10
2013,09,01,22,48,6.40
2013,09,01,22,50,1.60
2013,09,01,22,51,1.60
2013,09,01,22,52,11.30
2013,09,01,22,53,14.50
2013,09,01,22,54,11.30
2013,09,01,22,55,9.60
2013,09,01,22,56,11.30
2013,09,01,22,57,6.40
2013,09,01,22,58,8.10
2013,09,01,22,59,6.40
2013,09,01,23,00,6.40
2013,09,01,23,01,8.10
2013,09,01,23,02,6.40
2013,09,01,23,03,8.10
2013,09,01,23,04,8.10
2013,09,01,23,05,6.40
2013,09,01,23,07,4.80
2013,09,01,23,10,3.20
2013,09,01,23,11,4.80
2013,09,01,23,12,4.80
2013,09,01,23,13,4.80
2013,09,01,23,14,6.40
2013,09,01,23,16,4.80
2013,09,01,23,17,4.80
2013,09,01,23,49,1.60
